Location: London
(42.9830°N, 81.2500°W)
Time: 16:21:17
(UTC-05:00)

Amateur Radio Satellites - All Passes

Search period start: 22 December 2014 15:51
Search period end: 23 December 2014 15:51
Location: London, 42.9830°N, 81.2500°W

Satellite Date Start Highest point End Downlink Frequencies (MHz)
Time Altitude Azimuth
PCSat 22 Dec 15:59:25 16:02:19 14° 324° (NW) 16:05:14 145.827
Cubesat XI-IV 22 Dec 16:04:07 16:04:41 10° 55° (NE) 16:05:16 437.490
RS-15 22 Dec 16:11:14 16:19:35 24° 354° (N) 16:28:08 29.354- 29.394
HORYU 2 22 Dec 16:17:21 16:19:33 14° 270° (W) 16:21:47 437.375
CUTE-I 22 Dec 16:33:18 16:36:54 19° 61° (ENE) 16:40:31 437.470
AUBIESAT-1 22 Dec 16:36:34 16:37:03 10° 308° (NW) 16:37:32 437.475
AIST 1 22 Dec 16:57:25 17:01:43 56° 281° (W) 17:06:01
ISS 22 Dec 17:03:12 17:05:37 19° 7° (N) 17:08:02 145.825
GONETS M04 22 Dec 17:05:40 17:14:29 86° 264° (W) 17:23:11
MOZHAYETS 4 22 Dec 17:07:56 17:12:27 51° 99° (E) 17:16:55
MaSat-1 22 Dec 17:08:20 17:09:41 14° 56° (NE) 17:11:05 437.345
JAS-2 22 Dec 17:16:43 17:24:05 52° 261° (W) 17:30:49 435.910
Cubesat XI-IV 22 Dec 17:38:30 17:43:47 69° 73° (ENE) 17:49:05 437.490
AO-7 22 Dec 17:39:33 17:44:45 18° 271° (W) 17:50:00 29.400- 29.500
STRAND 1 22 Dec 18:03:23 18:05:42 13° 89° (E) 18:08:01 437.568
CUTE-I 22 Dec 18:11:12 18:16:28 64° 258° (WSW) 18:21:45 437.470
CUSAT 1 22 Dec 18:18:23 18:21:40 13° 57° (ENE) 18:25:04 437.405
RS-15 22 Dec 18:26:57 18:36:41 33° 29° (NNE) 18:46:44 29.354- 29.394
CUBESAT XI-V 22 Dec 18:37:19 18:41:28 33° 96° (E) 18:45:36 437.345
ISS 22 Dec 18:39:38 18:42:48 43° 26° (NNE) 18:45:57 145.825
PRISM 22 Dec 18:40:56 18:45:05 72° 102° (ESE) 18:49:12 437.425
MaSat-1 22 Dec 18:41:07 18:42:45 16° 250° (WSW) 18:44:26 437.345
MOZHAYETS 4 22 Dec 18:46:11 18:49:17 18° 297° (WNW) 18:52:21
HO-68 22 Dec 18:49:41 18:54:58 23° 55° (NE) 19:00:14 435.675
GONETS M04 22 Dec 19:04:44 19:09:55 18° 284° (WNW) 19:15:05
BRITE-PL 22 Dec 19:06:11 19:07:25 11° 61° (ENE) 19:08:38 437.365/2234.400
DANDE 22 Dec 19:18:40 19:25:16 29° 68° (ENE) 19:32:28 436.750
GOMX 1 22 Dec 19:21:10 19:22:37 12° 61° (ENE) 19:24:03 467.674
Cubesat XI-IV 22 Dec 19:21:14 19:24:22 16° 270° (W) 19:27:32 437.490
SEEDS 22 Dec 19:22:05 19:24:15 14° 62° (ENE) 19:26:25 437.485
CUTE 1.7 + AOD 2 22 Dec 19:27:41 19:30:36 18° 65° (ENE) 19:33:32 437.475
DOVE 4 22 Dec 19:35:46 19:37:30 12° 61° (ENE) 19:39:15 437.250
STRAND 1 22 Dec 19:40:21 19:45:27 76° 286° (WNW) 19:50:32 437.568
CUSAT 1 22 Dec 19:58:32 20:06:15 56° 75° (ENE) 20:14:35 437.405
SO-50 22 Dec 20:06:52 20:10:37 26° 113° (ESE) 20:14:28 436.795
AAUSAT CUBESAT 2 22 Dec 20:10:04 20:13:48 32° 69° (ENE) 20:17:34 437.432
Oscar 11 22 Dec 20:11:50 20:14:48 18° 64° (ENE) 20:17:47 145.826/435.025
CUBESAT XI-V 22 Dec 20:14:58 20:18:47 26° 293° (WNW) 20:22:35 437.345
ISS 22 Dec 20:16:27 20:19:15 26° 224° (SW) 20:22:02 145.825
PRISM 22 Dec 20:18:42 20:20:02 11° 300° (WNW) 20:21:21 437.425
UKube-1 22 Dec 20:21:55 20:24:53 18° 64° (ENE) 20:27:51 .
CANX-2 22 Dec 20:31:20 20:35:37 88° 257° (WSW) 20:39:57 2200.000
BEESAT 3 22 Dec 20:32:10 20:35:14 19° 42° (NE) 20:38:16 437.485
HO-68 22 Dec 20:34:43 20:41:55 79° 255° (WSW) 20:49:08 435.675
RS-15 22 Dec 20:39:34 20:50:54 84° 56° (NE) 21:02:44 29.354- 29.394
BRITE-PL 22 Dec 20:41:15 20:45:23 68° 259° (WSW) 20:49:33 437.365/2234.400
COMPASS 1 22 Dec 20:46:32 20:50:46 89° 261° (W) 20:55:02 437.405
CUBEBUG 2 22 Dec 20:47:06 20:50:36 26° 67° (ENE) 20:54:11 437.445
ZACube-1 22 Dec 20:48:07 20:51:10 20° 65° (ENE) 20:54:17 437.345
DELFI C3 22 Dec 20:49:25 20:53:10 35° 70° (ENE) 20:56:57 145.870
AIST 2 22 Dec 20:52:33 20:55:10 15° 38° (NE) 20:57:45 435.215
SEEDS 22 Dec 20:55:23 20:59:34 60° 259° (W) 21:03:49 437.485
GOMX 1 22 Dec 20:56:04 21:00:11 66° 259° (W) 21:04:22 467.674
VELOX 1 22 Dec 20:58:29 21:01:09 16° 63° (ENE) 21:03:48 145.980
DANDE 22 Dec 21:01:24 21:09:13 72° 264° (W) 21:17:53 436.750
CUTE 1.7 + AOD 2 22 Dec 21:02:07 21:06:11 44° 262° (W) 21:10:19 437.475
DOVE 4 22 Dec 21:10:38 21:14:43 63° 259° (W) 21:18:56 437.250
FUNcube-1 22 Dec 21:13:12 21:17:01 35° 70° (ENE) 21:20:56 145.935
BEESAT 2 22 Dec 21:13:42 21:17:39 37° 49° (NE) 21:21:31 435.950
PCSat 22 Dec 21:16:50 21:21:01 22° 43° (NE) 21:25:10 145.827
CINEMA 3 22 Dec 21:18:34 21:22:44 88° 257° (WSW) 21:27:03 145.822/145.860
UWE-3 22 Dec 21:19:41 21:23:44 49° 72° (ENE) 21:27:54 435.000/436.395/437.385
STRAND 1 22 Dec 21:22:38 21:23:45 11° 304° (NW) 21:24:53 437.568
DX 1 22 Dec 21:27:49 21:32:10 89° 256° (WSW) 21:36:32 434.975-435.025
HUMSAT D 22 Dec 21:30:07 21:33:47 31° 69° (ENE) 21:37:32 437.325/437.525
CUBEBUG 1 22 Dec 21:40:17 21:42:59 16° 63° (ENE) 21:45:41 437.445
AISAT 22 Dec 21:41:15 21:45:24 42° 71° (ENE) 21:49:35 437.250
CUSAT 1 22 Dec 21:42:03 21:49:05 36° 271° (W) 21:56:34 437.405
AAUSAT CUBESAT 2 22 Dec 21:46:09 21:49:30 23° 266° (W) 21:52:53 437.432
Oscar 11 22 Dec 21:46:29 21:50:38 44° 261° (W) 21:54:50 145.826/435.025
SO-50 22 Dec 21:46:39 21:50:57 40° 312° (NW) 21:55:24 436.795
UKube-1 22 Dec 21:56:34 22:00:42 45° 260° (W) 22:04:52 .
ANTELSAT 22 Dec 21:57:13 21:59:52 15° 90° (E) 22:02:31 437.575/2403.000
BEESAT 3 22 Dec 22:09:39 22:13:44 55° 241° (WSW) 22:17:46 437.485
YUBILEINY 22 Dec 22:19:34 22:24:59 19° 77° (ENE) 22:30:24 435.215
BUGSAT 1 22 Dec 22:20:55 22:21:37 10° 90° (E) 22:22:19 437.445
ZACube-1 22 Dec 22:23:22 22:27:17 38° 263° (W) 22:31:18 437.345
CUBEBUG 2 22 Dec 22:23:36 22:27:14 28° 265° (W) 22:30:57 437.445
50 SAT 22 Dec 22:24:14 22:28:15 79° 258° (WSW) 22:32:20 437.505
DELFI C3 22 Dec 22:25:31 22:28:32 20° 267° (W) 22:31:35 145.870
HO-68 22 Dec 22:27:20 22:30:41 14° 273° (W) 22:34:02 435.675
TISAT 1 22 Dec 22:28:20 22:30:16 13° 62° (ENE) 22:32:12 437.305
TIGRISAT 22 Dec 22:30:00 22:34:11 31° 96° (E) 22:38:21 435.000
AIST 2 22 Dec 22:30:03 22:34:22 83° 238° (WSW) 22:38:36 435.215
DUCHIFAT 1 22 Dec 22:31:27 22:34:31 19° 93° (E) 22:37:34 145.980
VELOX 1 22 Dec 22:32:58 22:37:17 55° 259° (W) 22:41:38 145.980
SPROUT 22 Dec 22:38:48 22:41:23 16° 63° (ENE) 22:43:58 437.525
ESTCUBE 1 22 Dec 22:43:57 22:48:29 78° 75° (ENE) 22:53:02 437.505/2401.250
QB50P2 22 Dec 22:46:19 22:50:01 28° 96° (E) 22:53:43 145.880/145.840
DANDE 22 Dec 22:47:24 22:51:40 16° 280° (W) 22:56:08 436.750
FUNcube-1 22 Dec 22:50:19 22:53:29 21° 267° (W) 22:56:43 145.935
BEESAT 2 22 Dec 22:52:22 22:55:42 23° 247° (WSW) 22:58:59 435.950
RS-15 22 Dec 22:53:12 23:02:03 28° 257° (WSW) 23:11:13 29.354- 29.394
POLYITAN 1 22 Dec 22:55:50 22:59:48 35° 98° (E) 23:03:46 437.675
NANOSAT C BR1 22 Dec 22:55:55 22:59:50 35° 97° (E) 23:03:44 145.865
UWE-3 22 Dec 22:58:14 23:00:37 15° 270° (W) 23:03:02 435.000/436.395/437.385
PCSat 22 Dec 22:59:33 23:04:58 70° 243° (WSW) 23:10:19 145.827
UNISAT 6 22 Dec 23:00:08 23:04:50 64° 101° (E) 23:09:31 437.425
HUMSAT D 22 Dec 23:06:23 23:09:38 22° 266° (W) 23:12:57 437.325/437.525
QB50P1 22 Dec 23:10:35 23:14:46 51° 100° (E) 23:18:55 145.935-145.965
CUBEBUG 1 22 Dec 23:14:42 23:18:57 51° 260° (W) 23:23:12 437.445
AISAT 22 Dec 23:19:08 23:22:13 19° 267° (W) 23:25:19 437.250
ANTELSAT 22 Dec 23:32:22 23:37:03 62° 287° (WNW) 23:41:42 437.575/2403.000
POPSAT HIP 1 22 Dec 23:39:34 23:43:51 76° 285° (WNW) 23:48:07 437.405
BUGSAT 1 22 Dec 23:53:29 23:57:31 65° 286° (WNW) 00:01:34 437.445
TISAT 1 23 Dec 00:01:26 00:05:35 62° 259° (WSW) 00:09:46 437.305
DUCHIFAT 1 23 Dec 00:06:33 00:10:31 39° 289° (WNW) 00:14:28 145.980
TIGRISAT 23 Dec 00:06:47 00:10:51 30° 292° (WNW) 00:14:55 435.000
YUBILEINY 23 Dec 00:11:44 00:20:30 90° 97° (E) 00:29:16 435.215
SPROUT 23 Dec 00:12:54 00:17:04 51° 260° (W) 00:21:15 437.525
AUBIESAT-1 23 Dec 00:14:27 00:17:52 19° 58° (ENE) 00:21:16 437.475
SWISSCUBE 23 Dec 00:18:56 00:23:15 34° 68° (ENE) 00:27:34 437.505
ITUPSAT 1 23 Dec 00:20:31 00:24:47 33° 68° (ENE) 00:29:03 437.325
QB50P2 23 Dec 00:22:16 00:25:52 27° 292° (WNW) 00:29:27 145.880/145.840
ESTCUBE 1 23 Dec 00:25:05 00:25:54 10° 272° (W) 00:26:42 437.505/2401.250
O/OREOS (USA 219) 23 Dec 00:31:33 00:35:58 72° 111° (ESE) 00:40:26 437.305
NANOSAT C BR1 23 Dec 00:32:14 00:35:30 22° 294° (WNW) 00:38:46 145.865
POLYITAN 1 23 Dec 00:32:15 00:35:32 22° 294° (WNW) 00:38:50 437.675
UNISAT 6 23 Dec 00:38:18 00:41:06 16° 298° (WNW) 00:43:54 437.425
Oscar 19 23 Dec 00:40:21 00:42:47 13° 89° (E) 00:45:12 437.125/150
M-CUBED/EXP-1 PRIME 23 Dec 00:40:43 00:45:08 35° 63° (ENE) 00:49:34 437.505
BEESAT 23 Dec 00:43:00 00:47:39 54° 72° (ENE) 00:52:20 436.000
QB50P1 23 Dec 00:47:40 00:50:15 16° 297° (WNW) 00:52:49 145.935-145.965
STARS 23 Dec 01:00:29 01:02:00 12° 60° (ENE) 01:03:32 437.465
KKS-1 23 Dec 01:07:40 01:10:54 20° 65° (ENE) 01:14:10 437.445
AUBIESAT-1 23 Dec 01:47:32 01:52:20 61° 254° (WSW) 01:57:11 437.475
VERMONT LUNAR 23 Dec 01:51:24 01:53:46 17° 152° (SSE) 01:56:08 437.305
SWISSCUBE 23 Dec 01:57:06 02:01:08 27° 265° (W) 02:05:12 437.505
ITUPSAT 1 23 Dec 01:58:31 02:02:39 29° 264° (W) 02:06:49 437.325
YUBILEINY 23 Dec 02:12:28 02:18:34 21° 299° (WNW) 02:24:42 435.215
O/OREOS (USA 219) 23 Dec 02:13:32 02:15:55 14° 310° (NW) 02:18:18 437.305
M-CUBED/EXP-1 PRIME 23 Dec 02:15:48 02:20:05 30° 260° (W) 02:24:24 437.505
Oscar 19 23 Dec 02:17:29 02:22:42 78° 286° (WNW) 02:27:53 437.125/150
PHONESAT 2.4 23 Dec 02:17:33 02:20:03 18° 152° (SSE) 02:22:33 2401.200-2431.200
BEESAT 23 Dec 02:22:45 02:25:49 17° 268° (W) 02:28:55 436.000
HORYU 2 23 Dec 02:31:18 02:32:37 11° 89° (E) 02:33:55 437.375
STARS 23 Dec 02:33:28 02:37:51 78° 257° (WSW) 02:42:16 437.465
ITAMSAT 1 23 Dec 02:38:55 02:44:04 63° 102° (ESE) 02:49:11 435.822/435.867
KKS-1 23 Dec 02:43:05 02:47:16 41° 261° (W) 02:51:29 437.445
Gurwin Techsat 1B 23 Dec 02:49:03 02:54:13 50° 99° (E) 02:59:20 435.225
AIST 1 23 Dec 03:03:57 03:07:56 36° 76° (ENE) 03:11:52
VERMONT LUNAR 23 Dec 03:28:12 03:31:36 45° 168° (SSE) 03:34:59 437.305
AO-7 23 Dec 03:43:43 03:50:53 31° 95° (E) 03:57:59 29.400- 29.500
PHONESAT 2.4 23 Dec 03:54:46 03:58:15 46° 168° (SSE) 04:01:45 2401.200-2431.200
Oscar 19 23 Dec 03:59:37 04:01:09 11° 304° (WNW) 04:02:42 437.125/150
HORYU 2 23 Dec 04:05:15 04:09:47 74° 286° (WNW) 04:14:16 437.375
MOZHAYETS 4 23 Dec 04:10:40 04:15:11 53° 73° (ENE) 04:19:44
GONETS M04 23 Dec 04:13:44 04:20:06 23° 79° (E) 04:26:28
ITAMSAT 1 23 Dec 04:19:37 04:23:03 18° 299° (WNW) 04:26:30 435.822/435.867
JAS-2 23 Dec 04:27:13 04:30:59 19° 90° (E) 04:34:36 435.910
Gurwin Techsat 1B 23 Dec 04:29:44 04:33:50 23° 297° (WNW) 04:37:56 435.225
SO-50 23 Dec 04:36:42 04:41:11 35° 47° (NE) 04:45:41 436.795
AIST 1 23 Dec 04:42:20 04:45:18 18° 273° (W) 04:48:14
VERMONT LUNAR 23 Dec 05:06:14 05:09:42 56° 185° (S) 05:13:10 437.305
STRAND 1 23 Dec 05:19:35 05:23:29 23° 63° (ENE) 05:27:23 437.568
PRISM 23 Dec 05:32:20 05:36:29 60° 73° (ENE) 05:40:39 437.425
PHONESAT 2.4 23 Dec 05:33:11 05:36:44 56° 185° (S) 05:40:18 2401.200-2431.200
AO-7 23 Dec 05:35:54 05:44:08 63° 294° (WNW) 05:52:19 29.400- 29.500
CUBESAT XI-V 23 Dec 05:41:41 05:45:57 36° 70° (ENE) 05:50:12 437.345
MOZHAYETS 4 23 Dec 05:49:50 05:52:44 16° 269° (W) 05:55:39
Cubesat XI-IV 23 Dec 05:55:30 05:59:51 25° 94° (E) 06:04:11 437.490
GONETS M04 23 Dec 06:07:03 06:15:54 79° 279° (W) 06:24:47
JAS-2 23 Dec 06:11:10 06:16:37 54° 290° (WNW) 06:21:40 435.910
SO-50 23 Dec 06:17:18 06:21:43 34° 245° (WSW) 06:26:08 436.795
CUTE-I 23 Dec 06:27:25 06:32:34 48° 99° (E) 06:37:41 437.470
VERMONT LUNAR 23 Dec 06:44:39 06:47:41 27° 201° (SSW) 06:50:44 437.305
STRAND 1 23 Dec 06:57:25 07:02:21 48° 260° (W) 07:07:17 437.568
PRISM 23 Dec 07:10:39 07:12:23 12° 269° (W) 07:14:08 437.425
PHONESAT 2.4 23 Dec 07:11:57 07:15:06 28° 202° (SSW) 07:18:15 2401.200-2431.200
CUBESAT XI-V 23 Dec 07:19:42 07:23:27 24° 266° (W) 07:27:14 437.345
AO-7 23 Dec 07:30:45 07:35:18 16° 316° (NW) 07:39:50 29.400- 29.500
Cubesat XI-IV 23 Dec 07:35:05 07:40:06 43° 291° (WNW) 07:45:06 437.490
MaSat-1 23 Dec 07:57:48 07:59:32 19° 111° (ESE) 08:01:13 437.345
HO-68 23 Dec 08:02:57 08:07:42 19° 90° (E) 08:12:25 435.675
CUTE-I 23 Dec 08:08:09 08:12:19 24° 297° (WNW) 08:16:30 437.470
GONETS M04 23 Dec 08:08:53 08:14:20 17° 302° (WNW) 08:19:48
CANX-2 23 Dec 08:17:24 08:20:00 16° 91° (E) 08:22:35 2200.000
COMPASS 1 23 Dec 08:31:13 08:33:32 14° 90° (E) 08:35:50 437.405
DANDE 23 Dec 08:37:04 08:39:12 14° 79° (E) 08:41:38 436.750
SEEDS 23 Dec 08:39:57 08:43:15 21° 93° (E) 08:46:31 437.485
BRITE-PL 23 Dec 08:44:02 08:48:27 35° 97° (E) 08:53:10 437.365/2234.400
CUTE 1.7 + AOD 2 23 Dec 08:46:53 08:50:40 29° 96° (E) 08:54:25 437.475
GOMX 1 23 Dec 08:56:08 09:00:33 34° 97° (E) 09:05:12 467.674
ANTELSAT 23 Dec 08:58:03 09:00:33 15° 61° (ENE) 09:03:04 437.575/2403.000
O/OREOS (USA 219) 23 Dec 09:02:07 09:05:22 19° 54° (NE) 09:08:36 437.305
DOVE 4 23 Dec 09:08:13 09:12:37 33° 97° (E) 09:17:12 437.250
UWE-3 23 Dec 09:11:35 09:12:25 10° 88° (E) 09:13:15 435.000/436.395/437.385
CUSAT 1 23 Dec 09:11:54 09:15:37 43° 91° (E) 09:20:35 437.405
CINEMA 3 23 Dec 09:12:48 09:16:34 23° 93° (E) 09:20:25 145.822/145.860
DX 1 23 Dec 09:16:55 09:19:20 14° 91° (E) 09:21:43 434.975-435.025
DUCHIFAT 1 23 Dec 09:25:53 09:28:36 17° 64° (ENE) 09:31:21 145.980
AAUSAT CUBESAT 2 23 Dec 09:27:51 09:32:01 52° 100° (E) 09:36:08 437.432
TIGRISAT 23 Dec 09:30:07 09:33:55 29° 68° (ENE) 09:37:48 435.000
Oscar 11 23 Dec 09:33:10 09:37:02 30° 96° (E) 09:40:52 145.826/435.025
QB50P2 23 Dec 09:40:48 09:44:14 25° 67° (ENE) 09:47:41 145.880/145.840
UKube-1 23 Dec 09:43:44 09:47:27 27° 96° (E) 09:51:07 .
HO-68 23 Dec 09:49:00 09:56:11 82° 288° (WNW) 10:03:19 435.675
NANOSAT C BR1 23 Dec 09:49:59 09:53:39 30° 69° (ENE) 09:57:20 145.865
POLYITAN 1 23 Dec 09:50:22 09:54:04 31° 69° (ENE) 09:57:48 437.675
CANX-2 23 Dec 09:52:02 09:56:13 49° 287° (WNW) 10:00:21 2200.000
UNISAT 6 23 Dec 10:00:13 10:04:33 61° 73° (ENE) 10:09:01 437.425
DELFI C3 23 Dec 10:03:59 10:08:03 54° 100° (E) 10:12:03 145.870
QB50P1 23 Dec 10:04:33 10:08:32 43° 71° (ENE) 10:12:32 145.935-145.965
50 SAT 23 Dec 10:05:06 10:07:17 14° 91° (E) 10:09:28 437.505
COMPASS 1 23 Dec 10:05:24 10:09:33 52° 287° (WNW) 10:13:40 437.405
ZACube-1 23 Dec 10:10:55 10:15:10 37° 97° (E) 10:19:26 437.345
CUBEBUG 2 23 Dec 10:12:54 10:17:29 54° 100° (E) 10:22:09 437.445
SEEDS 23 Dec 10:15:15 10:19:09 35° 290° (WNW) 10:23:02 437.485
DANDE 23 Dec 10:18:05 10:21:46 45° 288° (WNW) 10:26:43 436.750
YUBILEINY 23 Dec 10:20:58 10:29:18 47° 74° (ENE) 10:37:35 435.215
BRITE-PL 23 Dec 10:22:48 10:26:51 28° 291° (WNW) 10:31:10 437.365/2234.400
CUTE 1.7 + AOD 2 23 Dec 10:22:54 10:26:30 26° 292° (WNW) 10:30:04 437.475
VELOX 1 23 Dec 10:23:18 10:27:00 26° 95° (E) 10:30:41 145.980
ANTELSAT 23 Dec 10:32:28 10:36:49 61° 259° (W) 10:41:18 437.575/2403.000
POPSAT HIP 1 23 Dec 10:33:24 10:37:36 89° 257° (WSW) 10:41:51 437.405
GOMX 1 23 Dec 10:34:25 10:38:35 30° 291° (WNW) 10:42:58 467.674
FUNcube-1 23 Dec 10:36:32 10:41:05 69° 101° (ESE) 10:45:40 145.935
ESTCUBE 1 23 Dec 10:37:24 10:40:03 15° 91° (E) 10:42:42 437.505/2401.250
O/OREOS (USA 219) 23 Dec 10:40:41 10:45:03 50° 252° (WSW) 10:49:26 437.305
BUGSAT 1 23 Dec 10:44:33 10:48:38 83° 257° (WSW) 10:52:42 437.445
UWE-3 23 Dec 10:44:51 10:49:29 83° 284° (WNW) 10:54:11 435.000/436.395/437.385
DOVE 4 23 Dec 10:46:06 10:50:17 30° 291° (WNW) 10:54:40 437.250
HUMSAT D 23 Dec 10:48:55 10:53:12 55° 100° (E) 10:57:28 437.325/437.525
CINEMA 3 23 Dec 10:49:23 10:53:53 42° 289° (WNW) 10:58:32 145.822/145.860
DX 1 23 Dec 10:51:39 10:55:53 53° 288° (WNW) 11:00:07 434.975-435.025
CUSAT 1 23 Dec 10:56:12 10:59:15 18° 300° (WNW) 11:02:56 437.405
DUCHIFAT 1 23 Dec 11:00:06 11:04:07 45° 261° (W) 11:08:10 145.980
CUBEBUG 1 23 Dec 11:03:14 11:06:54 26° 95° (E) 11:10:33 437.445
RS-15 23 Dec 11:04:24 11:14:40 49° 111° (ESE) 11:24:57 29.354- 29.394
AAUSAT CUBESAT 2 23 Dec 11:04:47 11:07:15 15° 297° (WNW) 11:09:42 437.432
TIGRISAT 23 Dec 11:06:54 11:10:38 27° 265° (W) 11:14:28 435.000
AISAT 23 Dec 11:07:42 11:12:09 79° 103° (ESE) 11:16:37 437.250
Oscar 11 23 Dec 11:09:28 11:13:06 26° 293° (WNW) 11:16:42 145.826/435.025
QB50P2 23 Dec 11:16:19 11:20:02 30° 264° (W) 11:23:45 145.880/145.840
UKube-1 23 Dec 11:19:50 11:23:33 28° 293° (WNW) 11:27:16 .
NANOSAT C BR1 23 Dec 11:26:07 11:29:32 24° 265° (W) 11:32:58 145.865
POLYITAN 1 23 Dec 11:26:39 11:30:02 23° 265° (W) 11:33:27 437.675
HO-68 23 Dec 11:38:25 11:42:51 18° 308° (NW) 11:47:16 435.675
50 SAT 23 Dec 11:38:44 11:42:47 51° 287° (WNW) 11:46:48 437.505
UNISAT 6 23 Dec 11:39:43 11:41:47 13° 271° (W) 11:43:53 437.425
DELFI C3 23 Dec 11:40:41 11:42:51 14° 297° (WNW) 11:45:01 145.870
QB50P1 23 Dec 11:41:55 11:44:38 17° 268° (W) 11:47:22 145.935-145.965
TISAT 1 23 Dec 11:46:23 11:49:26 19° 93° (E) 11:52:28 437.305
ZACube-1 23 Dec 11:47:43 11:51:19 24° 294° (WNW) 11:54:57 437.345
CUBEBUG 2 23 Dec 11:50:40 11:53:47 18° 296° (WNW) 11:56:55 437.445
Oscar 19 23 Dec 11:57:33 12:01:28 23° 63° (ENE) 12:05:25 437.125/150
SPROUT 23 Dec 11:59:13 12:02:48 25° 95° (E) 12:06:23 437.525
VELOX 1 23 Dec 11:59:41 12:03:34 31° 292° (WNW) 12:07:28 145.980
PCSat 23 Dec 12:02:22 12:04:36 13° 102° (ESE) 12:06:50 145.827
BEESAT 3 23 Dec 12:05:44 12:08:54 22° 112° (ESE) 12:12:06 437.485
ESTCUBE 1 23 Dec 12:12:52 12:17:15 53° 288° (WNW) 12:21:36 437.505/2401.250
FUNcube-1 23 Dec 12:14:34 12:16:53 14° 298° (WNW) 12:19:12 145.935
YUBILEINY 23 Dec 12:18:06 12:25:55 40° 274° (W) 12:33:45 435.215
ITAMSAT 1 23 Dec 12:21:25 12:24:13 15° 59° (ENE) 12:27:02 435.822/435.867
UWE-3 23 Dec 12:25:03 12:25:16 10° 301° (WNW) 12:25:29 435.000/436.395/437.385
HUMSAT D 23 Dec 12:26:00 12:28:33 16° 297° (WNW) 12:31:07 437.325/437.525
AIST 2 23 Dec 12:30:38 12:33:24 17° 110° (ESE) 12:36:13 435.215
Gurwin Techsat 1B 23 Dec 12:35:01 12:37:11 13° 57° (ENE) 12:39:21 435.225
CUBEBUG 1 23 Dec 12:39:30 12:43:15 29° 292° (WNW) 12:46:59 437.445
BEESAT 23 Dec 12:44:24 12:46:32 13° 90° (E) 12:48:41 436.000
AISAT 23 Dec 12:46:34 12:48:09 12° 300° (WNW) 12:49:43 437.250
BEESAT 2 23 Dec 12:47:27 12:51:27 53° 119° (ESE) 12:55:32 435.950
ISS 23 Dec 12:57:12 13:00:27 57° 142° (SE) 13:03:42 145.825
AO-7 23 Dec 12:58:13 13:00:35 11° 39° (NE) 13:02:57 29.400- 29.500
RS-15 23 Dec 13:16:20 13:26:56 54° 315° (NW) 13:37:42 29.354- 29.394
TISAT 1 23 Dec 13:21:28 13:25:23 38° 290° (WNW) 13:29:18 437.305
HORYU 2 23 Dec 13:30:50 13:32:54 13° 60° (ENE) 13:34:58 437.375
SPROUT 23 Dec 13:35:08 13:38:53 30° 291° (WNW) 13:42:38 437.525
Oscar 19 23 Dec 13:35:30 13:40:28 49° 261° (W) 13:45:30 437.125/150
PCSat 23 Dec 13:41:46 13:47:11 89° 300° (WNW) 13:52:39 145.827
BEESAT 3 23 Dec 13:42:58 13:46:50 39° 310° (NW) 13:50:46 437.485
SWISSCUBE 23 Dec 13:55:43 14:00:30 73° 103° (ESE) 14:05:14 437.505
ITUPSAT 1 23 Dec 13:57:30 14:02:17 69° 102° (ESE) 14:07:00 437.325
ITAMSAT 1 23 Dec 13:57:52 14:03:03 80° 256° (WSW) 14:08:15 435.822/435.867
M-CUBED/EXP-1 PRIME 23 Dec 13:58:43 14:01:54 21° 97° (E) 14:04:52 437.505
AIST 2 23 Dec 14:07:29 14:11:37 52° 308° (NW) 14:15:51 435.215
Gurwin Techsat 1B 23 Dec 14:11:01 14:16:19 84° 75° (ENE) 14:21:40 435.225
BEESAT 23 Dec 14:20:07 14:24:53 70° 286° (WNW) 14:29:36 436.000
GONETS M04 23 Dec 14:23:24 14:25:49 11° 52° (NE) 14:28:14
STARS 23 Dec 14:23:35 14:26:42 19° 93° (E) 14:29:49 437.465
BEESAT 2 23 Dec 14:26:55 14:30:00 20° 318° (NW) 14:33:07 435.950
KKS-1 23 Dec 14:33:22 14:37:28 34° 97° (E) 14:41:33 437.445
ISS 23 Dec 14:34:17 14:37:12 28° 341° (NNW) 14:40:07 145.825
JAS-2 23 Dec 14:41:23 14:45:02 15° 56° (NE) 14:48:30 435.910
AO-7 23 Dec 14:43:29 14:51:15 46° 61° (ENE) 14:59:05 29.400- 29.500
HORYU 2 23 Dec 15:04:31 15:08:58 72° 258° (WSW) 15:13:29 437.375
AUBIESAT-1 23 Dec 15:04:48 15:09:05 79° 290° (WNW) 15:12:57 437.475
PCSat 23 Dec 15:27:45 15:31:23 18° 320° (NW) 15:35:02 145.827
M-CUBED/EXP-1 PRIME 23 Dec 15:33:07 15:37:04 35° 297° (WNW) 15:40:41 437.505
AIST 1 23 Dec 15:35:12 15:38:32 22° 88° (E) 15:41:51
SWISSCUBE 23 Dec 15:35:19 15:37:45 14° 300° (WNW) 15:40:11 437.505
ITUPSAT 1 23 Dec 15:36:58 15:39:36 15° 300° (WNW) 15:42:12 437.325
